sat.trackr.live / text

‹ back to catalog

STARLINK-5318

NORAD 55304 · 2023-010AM

PAYLOAD ACTIVE UNKNOWN

§ Identity

Operator
Country
US
Launch date
2023-01-19
Launch site
AFWTR
Launch vehicle
Mass (kg)
RCS (m²)

Purposes: comms

External: N2YO · Heavens-Above · Gunter

§ Orbital elements

Epoch: 2026-05-25T03:04:21.993312Z

Period
96.11 min
Inclination
69.9989°
Eccentricity
0.0003771
Mean motion
14.98328934 rev/d
Perigee alt
569.4 km
Apogee alt
574.7 km
Semi-major
6,950.2 km
B*
5.8063e-5
RAAN
191.5333°
Arg perigee
267.5847°
Mean anomaly
92.4880°
Rev number
18,472

§ Raw data

STARLINK-53181 55304U 23010AM  26145.12803233  .00000600  00000+0  58063-4 0  99942 55304  69.9989 191.5333 0003771 267.5847  92.4880 14.98328934184725

JSON: /api/v1/satellites/55304 · /tle

For live sub-satellite position, see the globe view (requires WebGL).

§ Visibility from observer

Set your observer location to see the next 7 days of passes ≥ 10°. The values pass through the URL so the page stays shareable.

No JS? Fill the form by hand. The geolocation button needs JavaScript.